DW7413 Weather Reports


Display with metric or nautical units.
time (UTC)temp
F
wind
direction
speed
MPH
gust
MPH
rain 1hr
in
rain 24hr
in
rain mn
in
humidity
%
barometer
mb
20260506090705 53 160 0.0 0.0 0.00 0.00 0.00 89 1018.0
20260506085705 53 160 0.0 0.0 0.00 0.00 0.00 89 1018.0
20260506084705 53 160 0.0 0.0 0.00 0.00 0.00 89 1018.0
20260506083705 53 160 0.0 0.0 0.00 0.00 0.00 88 1018.0
20260506082705 53 160 0.0 0.0 0.00 0.00 0.00 88 1018.0
20260506081705 53 160 0.0 0.0 0.00 0.00 0.00 88 1018.0
20260506080705 53 160 0.0 0.0 0.00 0.00 0.00 88 1017.9
20260506072705 54 160 0.0 0.0 0.00 0.00 0.00 87 1017.8
20260506071705 54 160 0.0 0.0 0.00 0.00 0.00 87 1017.7
20260506070706 54 160 0.0 0.0 0.00 0.00 0.00 86 1017.6
20260506061705 54 201 0.0 2.0 0.00 0.00 0.05 85 1017.2
20260506060706 55 180 0.0 1.0 0.00 0.00 0.05 85 1017.2
20260506050705 55 138 0.0 1.0 0.00 0.00 0.05 84 1016.5
20260506044706 55 132 0.0 0.0 0.00 0.00 0.05 83 1016.5
20260506043705 55 132 0.0 0.0 0.00 0.00 0.05 83 1016.4
20260506042705 55 132 0.0 0.0 0.00 0.00 0.05 83 1016.3
20260506041705 56 132 0.0 0.0 0.00 0.00 0.05 84 1016.1
20260506040707 56 134 0.0 1.0 0.00 0.00 0.05 83 1015.8
20260506035706 56 103 0.0 0.0 0.00 0.00 0.05 83 1015.7
20260506034705 56 129 0.0 0.0 0.00 0.00 0.05 82 1015.9
20260506033705 56 129 0.0 0.0 0.00 0.00 0.05 82 1015.9
20260506032706 56 129 0.0 0.0 0.00 0.00 0.05 82 1015.7
20260506031706 56 129 0.0 0.0 0.00 0.00 0.05 82 1015.6
20260506030706 56 129 0.0 0.0 0.00 0.00 0.05 81 1015.4
20260506025705 56 128 0.0 1.0 0.00 0.00 0.05 81 1015.2
20260506024705 57 145 0.0 0.0 0.00 0.00 0.05 80 1015.1
20260506023706 57 198 0.0 0.0 0.00 0.00 0.05 80 1015.1
20260506022705 57 118 0.0 1.0 0.00 0.00 0.05 80 1015.0
20260506021705 57 164 0.0 3.0 0.00 0.00 0.05 79 1014.9
20260506020706 57 181 0.0 3.0 0.00 0.00 0.05 79 1014.6
20260506015705 58 185 0.0 1.0 0.00 0.00 0.05 79 1014.8
20260506014705 58 131 0.0 0.0 0.00 0.00 0.05 80 1014.9
20260506013705 58 131 0.0 2.0 0.00 0.00 0.05 79 1014.9
20260506012705 58 128 0.0 2.0 0.00 0.00 0.05 78 1014.9
20260506011705 58 121 0.0 0.0 0.00 0.00 0.05 79 1014.8
20260506010707 58 130 0.0 1.0 0.00 0.00 0.05 78 1014.8
20260506005706 58 128 0.0 2.0 0.00 0.00 0.05 78 1014.7
20260506004706 58 191 0.0 5.0 0.00 0.00 0.05 78 1014.6
20260506003705 58 29 0.0 2.0 0.00 0.00 0.05 78 1014.6
20260506002706 58 146 0.0 0.0 0.00 0.00 0.05 78 1014.5
20260506001706 58 128 0.0 0.0 0.00 0.00 0.05 77 1014.6
20260506000705 58 143 0.0 1.0 0.00 0.00 0.05 76 1014.5
20260505235705 58 167 0.0 1.0 0.00 0.00 0.05 76 1014.5
20260505234705 58 67 0.0 1.0 0.00 0.00 0.05 76 1014.5
20260505233706 58 105 0.0 1.0 0.00 0.00 0.05 76 1014.4
20260505232705 58 103 0.0 0.0 0.00 0.00 0.05 76 1014.4
20260505231705 58 143 0.0 1.0 0.00 0.00 0.05 77 1014.5
20260505230705 58 118 0.0 0.0 0.00 0.00 0.05 78 1014.5
20260505225706 58 118 0.0 0.0 0.00 0.00 0.05 77 1014.5
20260505224705 58 224 0.0 0.0 0.00 0.00 0.05 77 1014.5
20260505223705 58 142 0.0 0.0 0.00 0.00 0.05 77 1014.6
20260505222705 58 178 0.0 2.0 0.00 0.00 0.05 77 1014.6
20260505221706 58 148 0.0 2.0 0.00 0.00 0.05 77 1014.8
20260505220705 58 180 0.0 0.0 0.00 0.00 0.05 77 1014.7
20260505215706 59 179 0.0 0.0 0.00 0.00 0.05 76 1014.9
20260505214705 59 167 0.0 0.0 0.00 0.00 0.05 75 1014.9
20260505213705 59 111 0.0 0.0 0.00 0.00 0.05 75 1014.9
20260505212705 60 192 0.0 0.0 0.00 0.00 0.05 75 1015.0
20260505211705 59 157 0.0 0.0 0.00 0.00 0.05 76 1015.0
20260505210705 58 138 0.0 0.0 0.00 0.00 0.05 77 1014.9
20260505205705 58 150 0.0 0.0 0.00 0.00 0.05 80 1014.9
20260505204706 57 188 0.0 0.0 0.00 0.00 0.05 80 1014.9
20260505203705 57 159 0.0 2.0 0.00 0.00 0.05 81 1014.9
20260505202706 57 178 0.0 1.0 0.00 0.00 0.05 82 1014.9
20260505201706 56 126 0.0 0.0 0.00 0.00 0.05 83 1014.9
20260505200705 55 155 0.0 0.0 0.00 0.00 0.05 82 1015.0
20260505195705 55 155 0.0 1.0 0.00 0.00 0.05 83 1015.1
20260505194707 55 173 0.0 2.0 0.00 0.00 0.05 83 1015.1
20260505193706 55 160 0.0 2.0 0.00 0.00 0.05 83 1015.1
20260505192705 55 176 0.0 4.0 0.00 0.00 0.05 84 1015.1
20260505191705 56 181 0.0 2.0 0.00 0.00 0.05 84 1015.1
20260505190705 55 193 0.0 2.0 0.00 0.00 0.05 85 1015.1
20260505185705 55 179 0.0 3.0 0.00 0.00 0.05 86 1015.1
20260505184706 55 128 0.0 1.0 0.00 0.00 0.05 86 1015.0
20260505183705 55 173 0.0 1.0 0.00 0.00 0.05 88 1015.0
20260505182706 54 127 0.0 1.0 0.00 0.00 0.05 89 1015.0
20260505181705 54 193 0.0 3.0 0.00 0.00 0.05 92 1015.0
20260505180706 54 205 0.0 0.0 0.00 0.00 0.05 93 1014.9
20260505175706 54 166 0.0 1.0 0.00 0.00 0.05 94 1014.8
20260505174705 52 140 0.0 0.0 0.00 0.00 0.05 95 1014.8
20260505173705 52 173 0.0 0.0 0.00 0.00 0.05 95 1014.7
20260505172705 51 117 0.0 0.0 0.00 0.00 0.05 96 1014.5
20260505171706 51 177 0.0 1.0 0.00 0.00 0.05 96 1014.6
20260505170705 50 137 0.0 2.0 0.00 0.00 0.05 96 1014.8
20260505165705 50 141 0.0 3.0 0.00 0.00 0.05 96 1014.8
20260505164706 50 173 0.0 3.0 0.00 0.00 0.05 96 1014.8
20260505163706 50 203 1.0 2.0 0.00 0.00 0.05 96 1014.7
20260505162706 49 169 0.0 1.0 0.00 0.00 0.05 96 1014.7
20260505161705 49 182 0.0 0.0 0.00 0.00 0.05 96 1014.5
20260505160706 49 180 0.0 1.0 0.00 0.00 0.05 96 1014.5
20260505152705 48 155 0.0 1.0 0.00 0.00 0.05 95 1014.4
20260505151706 48 126 0.0 1.0 0.00 0.00 0.05 95 1014.3
20260505150705 48 143 0.0 2.0 0.00 0.00 0.05 95 1014.3
20260505124706 48 159 0.0 1.0 0.00 0.00 0.05 95 1013.5
20260505123706 48 136 0.0 1.0 0.00 0.00 0.05 95 1013.3
20260505122706 48 136 0.0 0.0 0.00 0.00 0.05 95 1013.3
20260505121706 48 138 0.0 0.0 0.00 0.00 0.05 95 1013.3
20260505120706 48 146 0.0 0.0 0.00 0.00 0.05 95 1013.3
20260505115705 48 153 0.0 0.0 0.00 0.00 0.05 95 1013.3
20260505114706 48 174 0.0 0.0 0.00 0.00 0.05 95 1013.5
20260505113707 48 144 0.0 0.0 0.00 0.00 0.05 95 1013.4
20260505112706 48 105 0.0 2.0 0.00 0.00 0.05 95 1013.5
20260505111706 48 170 0.0 0.0 0.00 0.00 0.05 95 1013.4
20260505110706 48 119 0.0 0.0 0.00 0.00 0.05 95 1013.5
20260505101705 48 140 0.0 0.0 0.00 0.00 0.05 95 1013.4
20260505100705 48 148 0.0 0.0 0.00 0.00 0.05 95 1013.2
20260505095705 48 243 0.0 0.0 0.00 0.00 0.05 95 1013.5
20260505094706 48 245 0.0 0.0 0.00 0.00 0.05 95 1013.5
20260505093706 48 245 0.0 0.0 0.00 0.00 0.05 95 1013.5
20260505092706 48 245 0.0 0.0 0.00 0.00 0.05 95 1013.8
20260505091706 48 245 0.0 0.0 0.00 0.00 0.05 95 1013.8